TimeCDT,TemperatureF,Dew PointF,Humidity,Sea Level PressureIn,VisibilityMPH,Wind Direction,Wind SpeedMPH,Gust SpeedMPH,PrecipitationIn,Events,Conditions,WindDirDegrees,DateUTC
12:52 AM,53.1,50.0,89,29.95,10.0,Calm,Calm,-,N/A,,Clear,0,2013-09-23 05:52:00
1:52 AM,51.1,48.9,92,29.96,10.0,Calm,Calm,-,N/A,,Clear,0,2013-09-23 06:52:00
2:52 AM,51.1,48.9,92,29.96,10.0,Calm,Calm,-,N/A,,Clear,0,2013-09-23 07:52:00
3:52 AM,51.1,48.0,89,29.96,10.0,Calm,Calm,-,N/A,,Clear,0,2013-09-23 08:52:00
4:52 AM,51.1,48.0,89,29.97,10.0,ENE,3.5,-,N/A,,Clear,70,2013-09-23 09:52:00
5:52 AM,50.0,48.0,93,29.98,10.0,Calm,Calm,-,N/A,,Clear,0,2013-09-23 10:52:00
6:52 AM,51.1,48.9,92,29.99,10.0,East,3.5,-,N/A,,Clear,90,2013-09-23 11:52:00
7:52 AM,55.9,52.0,87,30.00,10.0,East,3.5,-,N/A,,Clear,80,2013-09-23 12:52:00
8:52 AM,60.1,54.0,80,30.01,10.0,Variable,5.8,-,N/A,,Clear,0,2013-09-23 13:52:00
9:52 AM,64.9,54.0,68,30.02,10.0,Variable,4.6,-,N/A,,Clear,0,2013-09-23 14:52:00
10:52 AM,68.0,54.0,61,30.02,10.0,Variable,3.5,-,N/A,,Clear,0,2013-09-23 15:52:00
11:52 AM,71.1,54.0,55,30.00,10.0,SE,4.6,-,N/A,,Clear,140,2013-09-23 16:52:00
12:52 PM,75.0,55.0,50,29.99,10.0,Variable,6.9,-,N/A,,Clear,0,2013-09-23 17:52:00
1:52 PM,75.9,54.0,46,29.96,10.0,East,4.6,-,N/A,,Clear,90,2013-09-23 18:52:00
2:52 PM,77.0,53.1,43,29.95,10.0,ESE,4.6,-,N/A,,Clear,110,2013-09-23 19:52:00
3:52 PM,78.1,53.1,42,29.95,10.0,East,3.5,-,N/A,,Clear,80,2013-09-23 20:52:00
4:52 PM,78.1,55.0,45,29.94,10.0,East,4.6,-,N/A,,Clear,100,2013-09-23 21:52:00
5:52 PM,75.9,57.0,52,29.94,10.0,East,5.8,-,N/A,,Clear,100,2013-09-23 22:52:00
6:52 PM,68.0,55.9,65,29.94,10.0,ENE,3.5,-,N/A,,Clear,70,2013-09-23 23:52:00
7:52 PM,66.0,57.0,73,29.95,10.0,Calm,Calm,-,N/A,,Clear,0,2013-09-24 00:52:00
8:52 PM,64.0,55.9,75,29.96,10.0,ENE,3.5,-,N/A,,Clear,70,2013-09-24 01:52:00
9:52 PM,63.0,55.9,78,29.96,10.0,ENE,3.5,-,N/A,,Clear,70,2013-09-24 02:52:00
10:52 PM,61.0,55.9,83,29.97,10.0,ENE,3.5,-,N/A,,Clear,70,2013-09-24 03:52:00
11:52 PM,59.0,55.9,90,29.96,10.0,East,3.5,-,N/A,,Clear,90,2013-09-24 04:52:00